Wind_Speed
6 6 5 5 4 3 2 1 1 2 2 2 2 3 4 5 6 7 8 9 10 12 13 14 16 16 17 17 17 17 16 16 16 17 18 17 17 17 18 20 21 23 24 24 24 25 24 23 24 24 24 25 24 24 24 23 22 22 22 22 23 26 26 26 26 26 25 25 26 26 27 27 28 29 30 30 31 31 30 30 30 30 31 32 33 34 35 35
5 5 5 4 3 3 2 1 1 1 1 1 1 1 2 3 4 5 6 7 8 9 10 11 11 12 13 13 13 13 12 11 11 12 12 12 11 11 10 12 14 16 16 16 17 17 17 18 18 19 19 20 20 20 20 20 20 20 20 19 21 23 24 26 26 25 25 24 24 24 25 26 27 28 29 29 29 29 28 29 31 31 31 32 33 33 34 34
6 5 5 4 3 3 2 2 2 2 1 2 2 2 2 2 2 2 2 2 3 4 4 4 4 4 6 7 7 7 6 6 7 7 7 8 8 9 9 9 10 11 12 13 13 14 15 17 17 17 17 18 18 18 19 20 21 21 20 20 21 21 23 26 27 27 27 25 25 25 25 27 28 29 29 29 30 29 29 31 32 31 32 33 33 34 35 34
5 5 5 4 3 3 3 2 2 2 2 3 3 3 3 3 2 2 2 2 2 3 3 3 3 3 4 5 6 7 6 6 7 8 9 9 10 10 10 11 12 12 13 14 15 16 17 18 18 18 18 18 19 18 19 21 22 22 22 22 22 22 24 26 29 29 28 27 27 27 28 29 30 30 30 31 31 29 30 32 31 32 33 33 34 34 34 33
5 5 4 4 4 3 3 2 2 2 2 2 2 2 2 2 2 2 2 3 3 4 4 4 5 5 5 6 7 8 8 9 9 11 11 12 12 12 12 13 14 14 15 16 17 18 18 19 19 19 19 19 20 20 21 22 23 24 24 25 24 24 26 28 29 29 29 28 28 28 29 29 30 30 31 31 30 29 30 30 31 32 33 33 33 33 33 33
5 4 4 4 4 3 3 2 2 2 3 3 2 2 2 2 2 2 3 3 4 4 4 4 5 6 7 7 8 9 10 11 11 12 13 14 14 14 14 15 16 16 17 17 18 19 20 20 20 20 21 21 21 21 21 22 24 26 26 26 25 26 27 28 29 29 29 29 28 28 27 28 28 29 29 29 29 30 29 30 31 32 33 33 33 34 34 34
4 3 3 4 4 4 4 4 4 4 4 4 4 4 4 3 3 3 3 4 4 4 4 5 6 7 8 9 10 10 11 12 13 13 14 15 15 16 16 16 17 17 18 18 18 19 19 19 20 19 20 21 21 20 21 22 23 24 24 25 25 26 26 27 27 28 29 30 29 28 28 28 29 29 29 28 29 31 30 30 32 32 33 33 34 34 35 35
4 2 1 2 2 3 4 4 4 5 5 5 5 5 4 4 4 4 4 5 5 5 6 7 8 9 10 10 10 10 11 12 13 13 14 14 15 16 16 16 16 16 17 17 18 18 18 19 18 18 19 20 21 21 21 21 22 22 23 25 26 26 27 27 28 28 29 30 30 30 30 30 30 30 28 27 30 31 30 31 32 33 34 34 35 36 37 37
6 4 2 1 1 2 3 4 5 5 5 5 5 5 5 5 5 5 5 6 6 6 7 8 9 9 10 10 10 10 11 11 12 12 12 13 14 14 15 16 16 17 17 18 18 18 18 19 18 18 19 20 21 22 22 23 23 23 24 25 26 27 28 28 28 29 29 30 30 31 31 32 31 31 28 29 32 32 31 32 33 34 34 35 37 38 39 38
7 6 3 1 1 2 3 4 4 5 5 5 5 5 5 5 6 6 6 6 7 7 8 8 9 9 10 10 10 10 11 12 12 12 13 13 13 14 14 15 15 16 17 17 17 18 19 19 19 19 20 20 21 22 23 24 24 24 24 25 25 26 27 28 29 30 30 31 32 32 33 33 33 33 31 32 34 34 33 34 35 35 35 36 37 38 39 40
8 6 3 0 1 2 3 3 3 4 4 5 5 5 6 6 6 6 6 7 7 7 8 9 9 9 9 10 10 11 11 12 12 13 13 13 13 13 13 14 14 15 16 17 17 18 19 20 20 21 21 22 23 24 25 26 26 26 26 26 26 27 28 29 30 31 32 32 33 34 35 35 34 34 33 34 35 35 36 36 36 36 36 37 37 38 39 39
8 6 4 2 1 2 2 2 3 3 4 4 4 5 6 6 6 6 7 7 7 7 8 8 9 9 9 10 11 11 11 11 10 11 11 11 11 12 12 13 15 16 17 18 19 20 21 21 22 23 24 24 25 27 27 28 29 29 29 29 29 29 29 30 31 32 33 33 34 36 36 35 34 34 35 35 36 36 37 36 36 37 37 37 37 37 37 37
7 6 5 3 2 2 2 2 2 2 3 3 4 4 5 6 6 6 6 6 6 7 8 8 9 9 10 10 10 10 9 8 8 9 9 10 11 13 14 15 16 18 19 20 21 22 23 23 24 25 26 27 27 28 29 29 30 31 31 31 31 31 31 31 32 32 33 34 35 37 37 35 33 34 35 36 37 37 37 36 36 37 37 37 37 36 36 35
7 6 5 3 3 2 2 2 2 2 2 2 3 4 4 5 5 6 5 5 6 6 7 8 8 9 9 8 8 8 8 8 9 10 11 12 14 15 16 17 19 20 21 22 23 24 25 25 26 27 27 28 28 29 29 30 31 32 32 32 32 32 31 31 31 32 33 34 34 36 37 34 32 33 35 36 37 36 36 37 36 36 36 36 36 36 35 34
7 7 6 3 2 2 2 2 2 1 1 1 2 3 4 5 5 5 4 4 5 6 7 7 7 6 6 6 7 8 9 10 11 13 14 15 16 17 19 20 21 22 23 24 25 25 26 26 27 27 27 28 28 29 29 29 30 31 31 31 31 32 31 30 31 31 32 33 33 35 36 32 30 32 35 36 36 36 36 36 35 35 35 36 35 35 34 34
7 7 6 3 1 2 3 3 2 1 1 2 3 4 5 5 5 4 3 4 5 5 5 5 5 5 6 7 8 9 10 12 14 15 16 17 18 19 20 21 22 23 24 25 25 26 26 26 26 27 27 27 27 28 28 28 28 29 29 29 30 31 31 30 31 31 32 33 33 34 35 32 30 32 35 36 37 37 36 34 35 36 36 35 35 35 34 33
8 8 6 3 1 2 3 3 2 1 1 2 3 4 4 4 3 3 3 4 3 3 2 3 4 6 7 9 10 11 13 14 15 16 17 19 19 20 21 22 23 24 25 25 26 26 26 26 26 26 27 27 27 27 27 26 27 28 28 28 29 30 31 31 32 32 33 34 34 35 36 33 30 32 35 37 38 38 36 35 36 37 36 35 35 34 33 33
8 8 6 3 1 3 2 2 2 1 1 2 3 3 3 3 3 3 3 2 1 1 1 3 6 7 9 11 12 13 15 15 16 17 18 19 20 21 22 23 24 25 25 26 26 26 26 26 26 26 26 26 26 26 26 27 27 28 29 29 29 30 31 32 32 32 33 33 32 33 35 32 28 29 32 35 36 34 32 32 34 34 32 32 31 30 29 28
8 8 6 2 1 2 2 2 1 1 1 3 3 2 2 3 3 2 1 1 1 1 2 5 7 9 11 12 13 14 15 16 17 18 18 20 21 21 22 23 24 25 25 25 25 25 25 25 25 25 25 25 26 26 26 27 27 27 27 27 27 26 26 27 27 28 28 27 26 27 27 23 20 22 26 29 28 25 24 25 27 26 25 25 24 23 23 23
7 7 5 2 1 2 2 1 1 1 1 2 2 1 2 2 1 1 1 1 0 2 5 7 10 11 12 13 14 15 15 16 17 18 19 20 21 22 23 23 23 24 24 24 23 23 23 23 23 23 23 24 24 24 24 24 23 23 23 23 22 22 21 22 23 23 23 22 21 22 21 18 17 20 22 24 23 21 21 23 23 23 23 22 22 22 22 22
8 7 5 2 1 1 1 1 0 1 2 2 2 1 1 1 1 1 1 0 2 5 7 10 12 13 13 13 14 14 15 16 16 18 19 20 21 22 22 22 22 22 22 22 22 22 21 21 20 20 20 20 20 20 20 20 20 20 20 20 21 21 21 22 23 23 24 23 21 23 22 19 20 22 22 24 24 23 24 24 24 24 24 24 24 24 24 25
8 7 4 2 1 1 1 0 1 2 2 2 1 1 1 2 1 1 1 2 5 7 9 11 12 13 13 13 13 14 15 16 17 19 20 20 21 21 21 21 21 21 21 21 20 20 19 19 19 19 19 19 19 19 19 19 20 20 21 21 22 23 23 23 24 25 25 26 24 25 25 21 22 25 25 26 26 26 28 27 27 27 27 27 27 27 28 28
7 6 4 2 1 1 1 1 2 2 2 2 1 2 3 3 2 0 2 4 6 9 11 12 12 12 12 13 13 14 15 17 19 20 20 21 21 21 21 20 20 20 20 20 19 19 19 18 18 18 19 19 19 19 20 20 21 21 22 23 24 25 25 25 25 26 27 28 28 29 28 24 25 28 27 28 27 28 30 31 30 31 31 31 31 31 31 30
8 6 3 1 1 1 1 2 2 2 2 2 3 4 4 3 1 1 3 6 8 10 12 12 12 13 12 12 13 15 16 18 20 20 20 20 20 20 20 19 19 19 19 19 19 19 18 19 19 19 19 19 19 20 20 21 21 22 23 24 24 25 26 26 26 26 26 27 30 32 30 25 25 29 30 29 29 30 30 31 31 31 31 31 32 32 32 31
8 6 2 1 1 2 2 2 3 2 2 3 5 5 4 3 1 3 5 7 9 11 12 12 13 12 12 13 14 16 18 19 19 19 19 19 19 18 18 19 19 18 18 19 19 18 19 19 19 19 19 19 20 20 21 21 22 22 23 24 24 25 26 26 26 26 25 25 27 32 32 26 23 28 32 31 31 32 32 32 32 32 32 32 32 32 33 33
9 6 2 2 2 2 2 3 3 2 3 5 6 5 4 3 2 5 7 8 10 12 12 12 12 12 12 14 16 18 19 19 19 19 18 18 17 17 17 17 17 17 18 18 18 18 19 19 19 20 20 20 20 20 21 22 22 22 23 24 24 25 25 25 26 26 26 25 26 30 32 29 23 24 30 31 31 32 33 34 33 33 33 33 33 34 34 34
10 6 3 3 3 3 3 3 3 2 4 6 6 5 4 4 4 6 8 9 11 12 12 12 12 12 13 15 17 18 19 18 18 17 16 16 16 16 16 16 17 17 18 18 18 19 20 20 20 20 21 21 21 21 22 22 23 23 24 25 25 25 26 26 26 27 27 26 26 28 31 30 26 23 27 29 28 30 32 33 32 31 32 32 33 34 33 34
9 6 4 4 3 4 4 4 3 3 5 6 6 5 4 3 5 7 9 11 12 12 13 12 11 12 14 16 18 19 18 18 16 15 15 15 15 16 16 16 17 18 18 19 19 20 20 21 21 21 22 22 22 23 23 23 24 24 25 26 27 27 27 28 28 28 29 27 26 28 29 31 28 24 26 27 27 30 31 30 29 28 28 29 30 31 31 31
9 6 5 5 4 4 5 4 3 4 6 6 6 5 4 4 6 8 10 11 12 13 13 12 12 13 15 17 18 18 18 17 15 15 15 15 15 15 16 17 17 18 19 19 20 20 21 21 22 22 23 23 24 24 25 25 26 26 27 28 29 30 29 30 30 30 31 29 28 29 30 32 29 23 25 28 29 31 32 31 30 29 29 29 30 30 29 28
9 7 6 6 5 5 5 5 4 5 5 5 6 6 6 6 7 9 11 12 13 14 13 13 13 14 16 17 18 17 16 15 15 15 14 15 15 16 17 17 18 18 19 20 21 21 22 22 23 24 24 25 26 26 26 27 28 28 29 30 31 32 32 33 33 33 34 33 31 31 31 34 32 25 24 28 31 33 33 32 32 32 32 32 31 31 30 29
9 7 7 7 6 6 6 5 5 5 5 6 6 6 7 7 8 10 12 13 14 14 13 13 14 15 17 18 18 17 16 15 14 14 14 15 16 17 18 18 19 19 20 21 22 23 24 24 24 25 26 27 27 28 28 29 30 31 32 32 34 35 35 36 36 36 37 36 34 35 35 35 34 28 24 25 29 34 35 33 33 34 34 33 32 31 32 31
9 8 8 7 7 6 6 5 5 5 5 6 7 7 8 9 10 11 13 15 15 14 13 14 15 16 18 18 18 17 15 15 14 15 15 16 17 18 19 20 20 21 21 22 22 22 23 25 26 27 28 29 29 30 30 31 32 33 34 35 36 37 39 40 39 39 41 40 38 38 39 38 34 28 25 25 27 31 35 35 35 35 34 33 32 32 33 32
9 9 8 7 7 6 6 6 6 6 6 6 7 8 9 10 11 13 14 15 15 14 15 15 15 17 18 18 18 17 15 15 15 15 16 17 18 19 21 21 22 23 24 24 25 24 24 25 27 28 29 30 31 32 34 34 35 36 36 37 38 39 42 44 44 44 45 44 44 43 44 42 35 29 26 25 26 29 33 36 37 35 33 34 35 36 36 35
9 9 8 7 7 7 6 6 6 6 6 7 8 9 10 11 13 14 15 16 15 15 15 15 16 17 18 18 18 17 16 15 16 17 17 18 19 20 22 23 23 25 27 28 29 29 27 26 27 30 31 32 33 34 36 36 37 38 38 40 41 40 43 46 47 48 48 49 49 48 47 44 40 34 25 21 25 29 33 37 37 36 35 37 40 40 40 39
9 8 8 8 7 7 7 6 6 7 7 8 9 10 11 12 14 15 16 16 16 16 16 16 17 17 18 18 18 18 17 17 17 18 18 19 20 20 22 25 25 27 29 31 32 34 34 31 30 32 32 33 34 35 36 38 39 40 40 42 42 42 44 48 49 49 50 53 54 52 51 48 45 35 20 18 25 28 34 38 38 38 39 42 44 45 45 44
9 8 8 8 8 7 7 7 7 7 8 9 10 11 12 13 15 16 17 17 17 16 16 17 17 18 18 19 19 19 19 18 19 19 19 21 22 22 24 26 27 28 31 33 35 36 38 37 34 34 35 35 36 37 38 39 39 41 42 44 44 45 46 48 51 51 52 55 57 57 56 55 51 35 21 26 31 30 35 39 38 41 43 44 46 49 50 49
8 8 8 8 8 7 7 7 8 9 9 10 11 12 14 15 16 17 18 19 18 17 18 18 18 18 18 19 20 20 21 21 21 22 22 23 24 23 25 28 29 31 33 35 36 38 41 42 40 38 38 38 38 39 40 39 40 43 44 45 46 47 48 49 52 53 53 57 60 61 60 59 57 45 35 37 38 36 37 38 39 43 45 46 47 50 53 54
8 8 9 8 8 8 8 8 9 9 10 11 12 14 15 16 17 18 19 19 19 18 19 19 19 19 20 20 21 22 23 23 24 25 25 26 26 26 27 30 31 33 34 37 39 40 44 47 46 42 41 42 42 42 42 40 42 45 45 46 47 48 49 50 52 54 55 59 62 63 64 63 60 54 50 47 44 41 38 36 40 44 46 48 49 51 54 56
8 9 8 8 8 8 9 9 9 10 12 12 13 15 16 17 18 19 20 20 20 19 19 20 20 20 21 22 22 23 24 24 25 27 29 29 29 29 30 32 33 35 37 39 41 43 45 50 52 48 46 47 46 45 44 44 46 47 47 48 48 48 49 49 53 56 56 58 62 65 67 66 60 57 57 56 51 44 39 37 40 44 46 50 51 53 55 57
9 8 8 8 8 9 9 10 10 12 13 13 14 16 16 18 19 20 20 21 21 21 20 21 22 22 22 23 25 26 27 27 27 29 31 32 32 32 33 34 36 37 40 42 43 45 47 51 55 54 52 52 50 47 48 49 49 49 50 50 49 49 50 51 55 57 57 59 62 65 70 69 64 60 59 60 56 48 43 42 43 46 49 52 54 55 57 58
8 8 8 8 9 9 10 11 12 13 14 14 15 16 17 19 20 21 22 22 22 22 22 22 23 24 25 25 27 28 30 30 29 31 33 34 34 36 36 38 39 40 43 45 46 47 49 52 56 57 57 56 54 52 52 52 52 52 53 52 51 51 52 54 57 58 58 61 63 66 71 71 66 62 59 59 58 55 50 48 48 50 52 54 55 57 57 59
8 8 8 9 9 10 11 11 13 13 15 15 16 17 18 19 21 22 22 23 23 23 24 24 24 26 27 28 29 30 32 34 33 34 35 36 36 38 39 41 43 45 46 48 49 49 51 54 58 59 60 60 59 58 57 56 56 56 56 55 54 55 56 57 60 59 60 64 66 67 72 71 66 62 61 59 59 59 57 54 54 55 56 56 57 58 59 60
8 8 8 9 10 11 11 12 13 14 15 16 16 18 19 20 22 23 23 24 24 24 25 25 26 27 29 30 32 32 34 37 38 38 38 39 39 40 43 45 47 48 49 50 51 52 54 57 60 62 62 62 61 62 61 60 59 59 59 59 59 59 59 59 62 62 62 66 67 67 71 72 65 61 62 62 60 59 60 60 61 62 61 60 61 61 62 62
7 8 9 10 11 11 12 13 14 15 16 17 17 19 20 21 23 24 25 25 26 26 26 26 27 29 31 33 34 35 37 39 42 42 42 43 44 45 47 49 50 51 52 53 54 55 57 60 62 65 66 65 65 65 65 64 63 64 65 64 63 63 62 63 64 65 67 68 65 67 72 70 64 62 64 63 61 61 63 65 67 66 65 65 65 65 65 64
8 9 10 11 12 12 13 14 15 16 17 17 18 20 22 23 24 25 26 26 27 28 28 28 29 31 33 36 37 38 39 41 44 46 46 47 48 49 51 52 53 54 55 56 58 60 61 63 65 66 67 69 69 68 66 65 65 67 68 67 67 66 65 67 67 69 72 69 65 69 73 69 63 63 64 63 63 64 66 68 68 68 68 68 68 67 67 68
9 10 11 12 13 13 14 15 16 17 18 18 19 21 23 24 26 26 26 27 27 29 30 31 31 34 36 38 39 41 41 43 46 48 49 49 51 52 53 55 56 57 58 60 62 64 65 66 67 68 68 70 71 70 68 67 67 67 67 67 68 67 66 68 70 71 72 70 68 70 72 69 65 64 65 66 67 67 68 68 68 68 68 68 69 70 71 71
10 11 12 13 14 14 15 15 17 18 19 19 20 22 24 25 27 27 27 28 28 30 31 32 34 36 38 40 41 43 43 45 48 50 50 51 53 54 56 57 58 59 61 63 64 66 69 69 69 70 71 71 72 71 69 69 69 69 68 68 67 66 67 68 70 70 68 70 73 71 67 68 68 67 68 69 69 69 69 69 68 67 68 69 70 72 73 73
11 12 13 14 14 15 16 17 18 19 20 21 22 23 24 26 28 28 28 29 30 31 33 34 36 38 40 41 43 45 45 47 50 52 53 54 56 58 59 59 61 63 64 66 67 69 71 73 72 72 73 73 74 73 71 70 71 70 70 69 67 67 68 68 69 68 67 71 74 70 66 67 69 69 69 69 70 69 69 68 69 69 70 72 73 73 73 72
12 13 14 15 16 16 17 19 20 21 22 23 23 24 26 27 29 29 30 31 32 33 35 36 38 40 42 43 45 47 49 51 53 54 56 58 60 61 63 63 65 66 67 69 70 71 73 76 75 74 75 76 75 73 71 70 71 71 70 69 69 69 69 69 69 68 68 71 72 70 67 67 68 71 70 69 69 68 68 70 71 72 73 73 73 72 71 70
13 14 15 16 17 18 19 21 22 23 24 25 26 27 28 29 30 31 32 34 34 36 38 39 40 43 44 46 48 49 51 54 57 58 59 61 63 64 65 67 67 68 70 71 72 73 75 77 76 75 77 77 75 73 73 73 74 74 73 73 72 72 71 71 71 70 70 71 70 68 67 66 67 69 68 68 69 70 71 73 73 72 71 71 70 70 69 68
14 15 16 18 19 20 22 23 23 25 26 27 28 29 30 32 33 34 35 36 38 39 41 42 44 46 47 49 51 53 54 56 59 60 61 63 65 65 67 68 69 70 71 71 72 73 75 76 75 76 78 78 74 73 74 75 75 75 75 75 74 73 72 72 72 72 72 71 70 69 69 69 69 69 69 70 70 70 71 71 71 70 69 68 67 67 66 66
15 16 17 19 21 22 24 25 25 27 28 29 30 32 33 35 37 38 39 39 41 42 44 45 47 49 50 52 54 55 57 59 60 62 63 65 66 67 68 68 68 70 70 71 72 73 74 76 76 76 79 78 74 74 75 75 75 75 74 73 72 70 70 71 71 71 71 71 71 71 72 72 72 71 70 70 69 68 68 68 68 67 66 65 65 64 65 65
Wind_Direction
177 181 182 184 185 186 187 217 332 331 310 281 270 268 265 262 261 263 265 270 274 279 281 282 282 282 280 279 279 278 276 272 270 271 273 276 279 279 278 273 269 267 268 267 263 262 268 273 274 275 276 276 274 271 271 270 270 269 268 268 269 268 268 267 265 264 263 262 261 263 263 264 265 264 264 264 264 265 267 269 269 268 268 268 268 268 269 270
176 181 187 189 186 186 179 127 60 28 329 269 244 251 265 271 274 277 275 275 277 279 280 281 282 281 280 278 278 277 279 277 275 275 278 283 286 288 286 281 277 274 276 278 277 277 281 282 281 282 283 282 282 282 282 283 281 279 278 278 276 275 276 275 273 271 268 267 267 268 269 269 270 270 270 271 271 271 273 272 272 272 273 273 274 273 273 272
180 188 195 199 197 201 198 166 138 131 148 163 170 179 190 214 231 242 254 260 257 261 268 273 275 275 277 280 285 293 300 299 295 291 288 287 286 287 288 286 286 287 290 294 293 292 290 287 285 283 282 282 283 284 284 284 283 283 283 280 279 279 279 277 275 273 273 274 274 272 272 271 271 271 272 272 273 274 273 272 273 275 275 275 275 274 274 275
185 194 201 207 211 217 217 196 165 159 160 166 173 174 174 182 191 193 196 198 207 230 251 262 270 275 284 294 300 307 310 304 298 295 294 293 295 298 300 299 299 299 298 297 294 290 287 285 284 282 281 281 282 283 283 283 283 283 283 281 282 282 279 276 276 276 277 278 279 277 275 275 274 274 274 274 275 275 274 275 276 276 275 274 274 274 275 276
186 194 203 213 219 224 226 221 204 205 206 203 192 185 191 195 203 213 227 236 240 256 267 273 282 289 293 295 297 301 303 301 298 298 300 301 304 304 303 302 299 297 294 291 289 286 284 283 283 284 285 285 285 285 286 286 285 284 283 284 285 283 279 278 279 281 281 280 278 277 276 277 277 277 277 277 277 276 276 277 277 275 275 275 275 276 276 276
179 187 196 206 211 215 224 234 243 254 258 262 262 249 245 240 247 258 260 261 264 271 279 289 298 304 305 302 303 307 307 304 301 301 302 304 305 304 302 300 297 294 292 289 288 286 285 286 286 287 288 288 287 287 287 286 284 284 285 286 285 282 281 281 282 283 282 280 278 277 277 276 276 276 276 278 278 277 277 276 275 274 275 275 276 277 276 276
159 172 187 195 199 200 208 225 237 249 259 266 272 274 276 279 284 286 287 287 288 296 304 312 316 313 308 306 307 310 309 305 304 305 306 307 308 307 306 303 301 299 297 294 292 291 290 291 290 290 290 288 288 287 284 282 281 283 284 284 283 281 281 281 281 281 281 282 282 281 280 278 277 276 276 279 278 276 275 275 275 276 276 277 277 276 276 275
109 105 139 198 200 192 196 211 225 235 246 258 264 268 273 278 283 288 295 300 304 312 319 321 318 313 308 306 307 307 305 303 304 306 306 307 307 307 306 305 304 303 300 299 298 297 297 295 294 294 291 289 289 288 284 282 282 282 281 281 282 282 281 281 281 281 282 283 284 284 283 281 279 279 280 281 277 275 276 276 277 277 278 278 277 276 276 276
80 69 48 331 237 208 199 200 212 226 236 246 253 259 266 270 274 281 288 297 305 312 317 317 312 309 306 306 307 307 306 306 307 307 306 305 304 304 305 305 305 304 302 303 303 303 301 299 298 295 291 290 290 289 287 287 286 283 281 280 281 282 282 283 283 283 283 284 284 284 283 283 282 282 283 281 277 277 278 277 276 276 276 276 276 277 277 277
76 68 54 346 237 217 212 203 205 219 231 240 248 255 263 267 271 276 284 294 303 311 315 313 310 308 308 310 312 313 312 312 311 310 309 308 308 306 305 305 305 306 306 308 308 307 305 304 302 298 295 293 291 290 290 290 288 286 283 282 282 282 283 283 283 284 284 283 283 283 282 282 283 283 282 280 278 279 278 277 277 276 275 275 275 276 277 277
76 69 62 58 185 185 208 211 213 224 233 239 250 259 265 269 273 279 287 295 305 313 315 313 312 313 315 316 317 317 315 314 313 312 312 313 313 313 312 312 311 310 310 310 309 307 306 304 302 299 296 295 293 292 292 291 290 289 288 287 286 284 284 283 284 284 284 284 284 283 282 282 283 283 282 280 279 278 277 277 277 276 276 275 274 275 276 277
74 67 63 79 138 159 184 204 220 236 246 251 258 266 271 274 279 284 289 298 309 317 317 315 317 319 320 320 319 317 316 316 317 318 319 321 320 319 316 314 311 308 307 306 305 303 302 300 298 296 295 294 293 292 292 292 291 291 290 289 288 287 286 286 285 285 284 284 283 282 282 284 285 284 282 280 279 278 277 277 277 276 276 276 275 275 275 275
68 61 63 88 124 143 162 181 211 233 251 262 270 275 276 278 281 283 290 304 316 321 321 319 322 322 320 321 320 320 322 325 327 327 326 323 320 316 311 308 305 303 302 301 300 299 298 297 295 294 294 293 291 291 291 291 291 290 290 290 289 288 288 287 286 285 284 283 283 282 282 283 285 284 282 280 279 279 279 278 277 277 277 277 277 276 276 276
61 55 58 86 121 134 146 161 181 210 240 260 272 276 276 278 279 283 295 313 325 325 322 320 321 321 321 323 326 327 328 328 328 325 322 318 314 311 309 307 305 303 302 301 301 300 298 297 296 295 294 292 292 292 291 291 291 291 291 291 290 290 289 289 287 286 285 284 283 283 283 284 284 283 281 280 279 279 278 277 277 277 276 276 276 277 277 277
52 48 47 69 116 138 149 158 163 178 214 249 264 269 272 274 276 285 305 323 327 321 317 318 320 324 327 330 330 327 325 326 326 322 319 317 314 312 310 309 308 306 305 304 303 302 301 300 299 297 295 294 293 292 292 292 291 291 291 291 291 290 290 289 288 286 285 284 284 283 283 284 282 280 279 279 279 278 277 277 277 277 276 275 276 276 276 276
45 38 34 46 108 152 156 158 156 171 205 244 256 264 268 270 277 292 316 323 321 319 317 322 327 332 333 331 327 324 324 326 323 320 318 316 314 313 312 311 310 309 308 307 306 305 304 302 301 299 298 297 296 295 294 293 292 291 291 291 290 289 289 288 287 286 285 284 284 283 283 283 282 280 279 279 278 277 278 279 278 277 276 276 276 276 277 277
36 28 22 27 128 173 164 160 157 172 210 249 253 259 266 272 288 306 315 313 315 319 319 330 334 333 334 330 327 324 324 324 321 319 318 317 316 316 314 314 313 312 311 309 308 307 306 304 302 300 299 298 297 296 295 294 293 292 291 291 291 290 290 289 287 286 285 283 283 283 282 282 281 280 280 279 278 278 279 279 277 276 276 276 276 276 277 278
25 17 10 10 187 183 173 165 163 178 226 252 254 259 272 285 298 304 305 305 326 353 328 335 334 331 331 330 329 326 325 324 322 321 321 319 319 318 317 317 316 315 313 311 310 309 307 305 303 302 301 300 299 298 297 296 295 294 295 294 294 294 293 292 290 289 287 286 286 285 282 282 283 281 280 279 278 279 279 278 276 277 278 278 278 279 279 280
13 6 358 356 196 188 179 173 170 182 235 254 254 263 285 293 298 298 290 156 119 35 338 334 331 330 331 330 329 325 325 326 324 323 322 320 321 320 319 318 317 317 315 315 313 311 310 308 307 306 305 303 301 300 299 299 299 299 299 299 299 300 299 299 299 299 298 297 297 294 291 294 295 287 283 282 284 287 284 281 281 283 284 285 285 285 284 285
1 354 349 347 217 192 177 171 162 208 238 244 244 267 287 289 285 203 156 138 54 341 337 335 331 331 331 329 328 326 326 326 323 322 322 322 322 321 320 320 320 320 319 319 318 317 317 316 314 311 309 306 305 304 303 303 304 303 303 304 305 307 307 307 308 309 309 310 310 305 306 316 307 293 289 289 295 300 295 292 293 294 294 293 292 291 290 289
352 345 342 334 259 187 162 165 184 220 224 228 242 278 278 230 149 142 131 7 332 335 334 333 331 330 329 328 328 326 325 324 323 323 323 322 322 321 321 322 323 323 322 323 324 325 325 323 321 317 314 313 311 311 311 310 310 309 308 309 309 310 311 311 311 313 313 314 314 309 312 320 309 300 299 298 302 303 298 296 296 295 295 293 292 290 288 287
344 338 336 320 266 162 149 205 236 212 208 230 245 237 184 165 145 110 27 339 332 332 330 330 329 328 328 326 325 324 323 324 324 324 323 323 323 323 324 325 326 327 327 327 328 328 327 325 324 322 321 319 319 318 316 315 314 312 311 311 312 311 312 313 313 314 313 312 313 309 311 317 310 303 302 300 302 301 297 295 295 294 293 292 290 288 286 286
339 335 330 309 241 166 222 239 221 209 212 235 212 168 165 163 152 83 349 335 330 328 327 327 326 326 325 323 323 324 325 325 325 326 325 326 326 326 326 327 328 330 330 329 330 329 327 326 326 325 324 322 321 320 318 317 316 314 314 313 313 312 312 314 314 315 314 312 311 307 307 315 310 303 302 301 300 299 296 296 296 296 295 295 293 291 290 289
338 334 325 283 221 226 255 233 214 212 221 216 180 168 167 172 175 317 326 327 326 325 325 324 323 323 322 323 324 326 327 327 327 327 326 327 327 327 328 329 329 330 330 330 331 332 331 331 330 329 327 324 323 322 321 320 318 317 316 315 315 314 313 314 315 315 316 315 312 305 304 311 311 302 300 299 297 295 294 294 295 295 294 294 293 292 292 290
338 333 317 253 258 268 255 228 219 220 213 191 176 172 174 186 234 304 315 323 325 324 324 321 322 322 322 325 327 328 329 328 328 327 326 327 329 331 332 332 333 334 335 335 336 337 337 337 336 334 332 330 329 328 327 326 324 323 321 320 320 319 318 318 318 316 317 317 314 308 305 308 313 307 302 301 300 298 297 296 295 295 294 293 292 292 291 289
334 328 303 273 285 277 254 239 236 227 195 180 175 176 186 204 254 298 312 323 325 323 321 320 321 322 323 325 327 329 329 327 327 327 328 330 332 336 337 338 340 342 343 344 344 344 344 343 342 340 338 337 336 334 333 332 331 329 328 327 325 324 324 323 323 320 321 323 320 315 313 314 321 319 310 309 309 305 303 301 300 299 297 295 293 292 290 289
329 321 297 290 286 266 258 256 252 226 189 180 178 180 196 223 268 298 312 321 323 321 320 319 319 320 322 325 327 329 328 328 329 330 332 336 338 340 343 345 346 347 349 349 349 348 346 345 344 342 341 339 338 337 335 334 333 332 330 328 327 326 325 324 324 323 322 325 323 320 320 319 325 328 318 315 315 310 306 305 305 302 298 294 291 289 288 287
323 311 291 288 270 260 266 266 253 212 188 184 185 188 206 247 283 300 313 319 320 320 319 318 317 318 322 325 327 327 327 328 331 333 337 340 343 344 346 347 347 349 350 349 349 347 345 345 343 342 340 339 338 336 334 333 332 331 329 327 325 324 324 322 322 321 318 321 323 320 319 317 322 329 321 316 316 310 308 309 307 303 298 294 291 289 289 289
315 299 288 282 263 266 272 265 240 205 191 192 197 204 227 267 290 303 313 316 317 319 318 315 314 317 322 325 327 326 327 329 332 336 340 342 344 346 346 346 346 347 347 346 346 345 343 342 340 339 338 337 336 334 333 331 329 329 327 325 323 322 322 320 319 319 315 317 320 318 316 314 317 327 322 316 315 310 309 309 307 304 302 298 296 297 299 300
306 289 283 276 266 273 272 257 233 208 200 207 212 221 243 271 293 306 313 314 316 317 314 311 313 317 321 324 325 325 326 329 333 337 340 341 342 343 342 342 343 342 342 343 342 341 340 340 338 336 335 335 334 332 330 328 327 327 325 323 321 319 319 318 318 316 313 315 317 315 313 311 314 325 324 317 314 309 307 307 307 308 308 307 308 308 310 311
296 284 279 272 270 275 268 252 233 215 214 225 228 235 254 276 294 306 310 311 313 313 310 310 312 316 321 323 324 324 326 329 333 335 336 336 337 337 338 338 338 338 338 338 338 337 337 336 336 333 332 332 330 329 328 326 325 324 323 322 319 318 317 315 316 314 312 314 315 312 310 309 313 323 324 318 313 308 307 308 308 310 312 312 313 314 314 314
288 280 275 269 274 276 264 249 235 226 231 239 241 249 265 283 297 305 309 311 312 310 309 309 311 316 320 322 322 322 324 326 329 330 330 332 332 332 333 334 334 333 333 334 333 333 334 334 332 330 331 330 328 328 326 325 324 322 322 320 318 318 315 313 315 314 312 312 312 310 308 308 315 323 323 319 314 309 309 311 310 311 311 310 309 310 311 309
280 277 273 270 276 272 258 247 237 235 242 248 253 261 273 286 298 304 308 310 309 307 307 307 310 316 319 319 319 319 321 322 323 324 325 327 329 329 330 330 330 329 329 329 328 329 330 331 329 328 329 328 327 327 326 325 323 321 321 319 317 317 313 313 315 313 312 312 310 309 308 309 316 323 323 321 317 312 312 312 312 312 311 309 309 309 308 307
273 273 271 272 274 266 253 246 243 247 251 255 260 268 278 289 298 303 307 307 305 303 303 305 309 313 316 316 316 316 316 316 317 319 320 321 325 326 325 326 327 325 325 325 324 324 325 328 327 325 326 326 325 325 324 324 322 320 319 316 316 315 311 311 312 311 311 310 307 307 307 309 314 321 327 325 317 314 314 313 312 311 311 310 309 308 307 306
270 270 269 272 269 260 253 249 251 256 258 260 265 273 282 290 296 302 305 304 301 299 300 303 307 310 312 313 313 312 312 312 313 315 316 317 321 323 321 321 322 322 321 321 321 321 322 324 324 323 324 323 323 323 322 322 320 318 317 316 315 312 309 309 309 309 309 306 305 307 306 308 311 318 332 325 313 314 314 312 309 308 308 308 308 306 304 303
269 269 269 270 263 256 254 254 259 262 262 263 269 276 283 290 297 302 303 301 299 297 297 301 304 306 309 309 309 308 307 309 309 309 311 314 317 320 317 317 317 317 317 317 317 318 318 319 320 321 321 320 320 321 321 320 317 315 316 315 312 310 309 308 306 307 306 304 306 307 306 308 309 314 328 317 309 313 312 309 307 306 306 305 305 304 302 300
267 268 270 267 261 258 259 260 264 265 265 268 274 280 286 292 297 301 301 299 297 294 296 298 300 304 306 305 305 304 303 306 307 307 308 309 313 316 313 312 313 313 313 313 313 315 314 314 316 317 317 317 317 318 319 318 313 312 314 313 310 309 308 306 305 305 303 303 306 307 306 306 305 310 317 311 309 313 311 306 304 303 302 301 300 299 298 297
266 269 269 264 262 263 264 266 268 268 269 274 279 284 288 294 298 299 300 298 294 293 295 296 298 301 303 302 302 300 300 304 305 304 305 306 310 312 310 309 310 309 310 309 310 312 313 312 312 314 314 313 313 315 316 314 309 310 312 310 307 307 306 305 302 301 300 302 303 304 304 303 304 310 312 309 309 312 308 302 300 299 298 297 296 294 293 293
269 271 267 264 265 266 267 271 273 274 276 279 283 286 291 295 297 298 298 295 291 291 293 294 296 299 300 300 299 297 297 299 300 300 302 305 309 309 308 307 306 306 306 305 306 309 310 309 309 311 311 309 311 314 313 309 307 309 309 307 306 305 304 302 299 298 298 299 300 301 301 301 305 310 310 308 310 309 303 297 295 295 294 292 291 290 289 290
272 270 266 266 268 269 273 277 279 279 280 283 286 290 293 295 295 296 296 294 291 290 291 292 295 296 297 297 297 296 295 295 296 297 299 303 306 306 306 305 303 303 302 302 304 305 306 305 306 308 308 308 310 311 308 307 307 307 306 305 305 304 301 298 296 297 297 297 296 296 297 301 306 309 308 308 309 307 300 294 293 292 289 287 287 287 287 287
273 270 268 270 272 275 279 282 283 283 284 287 290 293 295 295 295 295 295 293 291 291 291 292 294 295 296 297 295 295 296 295 295 295 298 301 303 303 303 302 300 300 300 301 303 303 303 302 303 305 306 307 308 307 305 305 306 306 304 303 303 301 298 295 295 296 296 294 293 292 293 299 306 307 307 306 305 303 299 295 292 289 286 285 285 285 285 285
272 272 271 274 277 280 282 284 285 286 287 290 292 293 294 294 293 293 293 292 291 291 292 293 294 295 296 296 295 295 296 296 296 296 298 300 301 301 299 298 298 299 299 300 301 301 300 299 300 303 304 305 306 305 304 305 306 305 303 302 300 297 296 294 293 294 293 291 291 291 292 298 305 306 305 302 300 300 298 294 290 287 285 285 285 284 285 285
272 275 275 279 282 284 285 286 287 288 289 291 293 293 293 292 291 291 291 291 291 291 291 292 293 294 295 294 293 293 294 297 299 299 298 299 300 298 297 297 298 299 299 300 300 299 298 298 299 300 302 303 304 303 304 306 306 304 301 300 298 297 296 294 292 292 289 288 290 290 291 297 303 303 300 298 297 297 294 290 288 287 287 286 286 286 286 287
274 278 280 283 285 287 289 288 288 289 290 291 292 292 292 291 290 290 291 291 291 291 290 291 292 293 293 291 292 293 294 297 301 301 301 301 301 299 299 299 300 300 300 300 300 299 298 298 299 300 301 302 302 303 304 305 304 302 301 301 299 298 296 293 292 290 288 289 292 290 290 295 299 298 296 295 293 291 288 287 286 287 287 287 288 288 288 288
275 281 283 284 287 290 291 290 291 291 291 291 292 292 292 292 292 292 292 292 292 292 292 292 292 291 290 291 293 295 296 297 300 301 302 302 301 301 301 301 301 301 301 300 300 299 298 298 299 300 301 301 302 303 304 303 301 300 300 299 298 296 295 293 291 289 288 292 293 289 289 293 295 294 291 289 287 285 285 285 285 286 287 288 289 289 289 290
280 284 286 288 290 291 291 292 293 293 292 292 292 293 294 294 294 294 294 294 293 294 295 294 294 293 292 294 296 297 298 298 298 300 301 301 302 302 302 301 302 302 301 300 300 299 298 298 298 299 300 300 301 302 302 300 298 297 297 296 295 294 293 291 288 288 291 293 290 287 291 293 291 288 286 285 284 284 283 283 284 285 285 287 288 289 290 291
285 287 289 290 291 292 293 294 293 292 292 292 292 293 295 295 295 295 296 296 296 296 297 296 295 294 295 297 298 299 300 299 298 299 300 301 301 300 300 301 301 301 301 300 300 299 298 298 299 299 298 298 299 299 299 298 297 296 295 294 293 292 290 288 287 289 291 289 286 288 291 290 287 285 284 284 284 284 284 284 284 284 285 286 288 289 289 289
288 290 291 292 293 294 294 294 294 294 294 294 295 296 295 295 296 297 298 298 298 298 299 298 297 297 298 299 299 300 301 300 299 300 301 301 301 300 301 301 301 301 301 300 299 299 299 298 298 298 297 297 297 297 297 296 295 295 294 293 292 290 288 287 287 288 287 285 286 288 288 285 285 284 284 284 284 284 285 284 283 284 285 286 287 287 287 287
291 292 293 294 295 296 297 296 296 297 297 297 297 298 297 297 299 300 300 301 301 300 300 300 300 300 300 300 300 302 301 300 301 302 301 301 301 301 301 301 301 300 300 299 299 299 298 297 298 298 296 296 297 297 296 295 294 294 294 293 291 289 288 288 288 287 285 284 286 287 286 285 284 283 284 284 284 284 284 283 283 284 285 285 286 286 286 285
292 293 294 295 296 297 297 297 297 298 299 300 300 300 300 301 302 303 303 303 303 302 302 302 302 301 302 301 301 302 301 301 301 301 301 301 301 301 301 301 301 300 299 299 299 298 297 298 298 298 297 296 297 297 296 295 295 294 293 292 291 291 291 290 288 287 287 286 287 287 287 285 284 284 285 285 284 285 285 285 285 285 286 285 285 285 285 284
292 294 295 296 297 297 297 298 299 300 300 301 301 302 303 303 304 304 304 304 304 303 303 303 302 302 302 301 301 301 300 300 300 301 301 301 301 302 302 302 301 301 300 300 299 298 299 299 299 299 297 297 298 297 296 295 294 293 293 293 292 293 292 290 289 289 289 288 288 287 286 285 285 285 285 285 286 286 286 286 287 287 287 287 286 286 286 286
294 295 296 296 296 298 299 300 301 301 302 303 303 304 304 305 305 305 305 305 304 304 303 303 302 302 302 301 301 301 301 300 301 301 301 301 302 302 302 302 302 302 301 301 300 300 299 299 299 298 297 297 298 297 295 294 293 294 294 294 293 293 292 291 290 290 289 289 288 287 286 286 286 286 286 287 288 288 288 288 288 289 289 288 287 287 287 287
Height
5781 5781 5782 5782 5783 5783 5783 5784 5784 5784 5784 5785 5785 5785 5786 5786 5787 5787 5787 5787 5787 5787 5787 5787 5787 5787 5787 5787 5787 5787 5786 5786 5786 5786 5785 5785 5784 5784 5783 5782 5782 5782 5781 5781 5780 5780 5779 5779 5779 5779 5779 5778 5778 5777 5777 5776 5776 5775 5775 5775 5774 5773 5773 5773 5773 5772 5772 5772 5771 5770 5770 5770 5769 5769 5768 5768 5768 5767 5767 5767 5766 5766 5765 5765 5765 5765 5764 5764
5781 5781 5782 5782 5782 5783 5783 5783 5784 5784 5784 5785 5785 5785 5785 5786 5786 5786 5786 5786 5787 5787 5787 5787 5787 5786 5786 5786 5786 5786 5785 5785 5785 5784 5784 5783 5783 5782 5782 5781 5781 5781 5780 5780 5779 5778 5778 5778 5778 5777 5776 5776 5775 5775 5774 5774 5773 5773 5772 5772 5771 5771 5770 5770 5770 5769 5769 5769 5768 5768 5767 5767 5766 5765 5765 5765 5765 5765 5764 5763 5762 5762 5761 5761 5761 5761 5760 5760
5781 5781 5782 5782 5782 5782 5783 5783 5784 5784 5785 5785 5785 5785 5786 5786 5786 5786 5786 5786 5786 5787 5787 5787 5787 5786 5786 5786 5785 5785 5784 5784 5783 5783 5783 5783 5782 5782 5782 5781 5781 5780 5779 5778 5778 5777 5777 5777 5777 5776 5775 5774 5773 5773 5772 5772 5771 5770 5770 5769 5769 5768 5768 5767 5766 5766 5766 5766 5765 5765 5765 5764 5763 5763 5762 5762 5762 5762 5761 5759 5759 5758 5758 5757 5757 5756 5756 5756
5781 5781 5781 5781 5781 5782 5782 5783 5783 5784 5785 5785 5785 5785 5786 5786 5786 5786 5786 5786 5786 5787 5786 5786 5786 5786 5786 5785 5784 5784 5784 5783 5783 5783 5783 5782 5782 5781 5780 5780 5779 5778 5778 5777 5777 5776 5776 5776 5775 5774 5773 5772 5772 5771 5770 5769 5768 5768 5767 5767 5766 5766 5765 5764 5763 5763 5763 5763 5762 5761 5761 5761 5760 5760 5759 5758 5758 5758 5757 5756 5756 5755 5754 5753 5752 5752 5752 5752
5780 5780 5780 5780 5781 5781 5781 5782 5782 5783 5784 5784 5785 5785 5785 5785 5785 5785 5786 5786 5786 5786 5786 5786 5786 5785 5785 5784 5784 5783 5783 5783 5782 5782 5781 5781 5780 5779 5779 5778 5778 5777 5777 5776 5776 5775 5775 5774 5773 5772 5771 5770 5769 5769 5768 5767 5766 5765 5764 5764 5764 5763 5762 5761 5760 5760 5760 5759 5759 5758 5758 5757 5756 5756 5756 5755 5755 5754 5753 5753 5752 5751 5750 5749 5748 5748 5748 5747
5780 5780 5780 5780 5781 5781 5781 5781 5782 5782 5783 5784 5784 5784 5785 5785 5785 5785 5785 5785 5785 5785 5785 5785 5785 5785 5784 5783 5783 5783 5782 5782 5781 5781 5780 5779 5778 5778 5777 5777 5776 5776 5775 5775 5774 5773 5772 5771 5770 5769 5768 5767 5767 5767 5766 5764 5763 5762 5761 5761 5761 5760 5759 5758 5757 5757 5756 5755 5755 5755 5754 5754 5753 5753 5752 5752 5752 5750 5750 5749 5747 5747 5746 5745 5745 5744 5743 5743
5779 5779 5779 5780 5780 5780 5780 5781 5781 5782 5783 5783 5783 5784 5784 5784 5784 5784 5784 5785 5785 5785 5785 5784 5784 5784 5783 5783 5782 5782 5781 5781 5780 5779 5778 5777 5776 5775 5775 5774 5774 5773 5773 5772 5772 5771 5770 5769 5768 5767 5766 5765 5764 5764 5764 5762 5761 5760 5759 5758 5758 5757 5757 5756 5755 5754 5752 5751 5751 5750 5751 5750 5749 5749 5749 5750 5748 5747 5746 5745 5743 5743 5742 5741 5741 5740 5739 5739
5779 5778 5778 5779 5779 5780 5780 5781 5781 5782 5782 5783 5783 5783 5783 5783 5783 5784 5784 5784 5784 5784 5784 5783 5783 5783 5782 5782 5782 5781 5781 5780 5779 5778 5777 5776 5775 5774 5774 5773 5772 5772 5771 5770 5770 5768 5767 5766 5766 5765 5764 5763 5762 5761 5761 5760 5760 5759 5758 5756 5755 5755 5754 5753 5752 5751 5749 5748 5747 5747 5746 5746 5745 5745 5746 5746 5744 5742 5742 5741 5740 5739 5738 5737 5736 5735 5735 5735
5778 5778 5778 5778 5779 5779 5780 5780 5781 5781 5782 5782 5782 5783 5783 5783 5783 5783 5783 5784 5784 5783 5783 5783 5782 5782 5782 5781 5781 5780 5779 5779 5778 5777 5776 5775 5775 5774 5773 5772 5771 5770 5769 5768 5767 5766 5765 5764 5764 5763 5762 5761 5760 5759 5758 5757 5757 5757 5755 5754 5753 5752 5751 5750 5748 5747 5746 5745 5744 5743 5742 5742 5741 5741 5743 5741 5739 5738 5738 5737 5736 5735 5734 5733 5731 5730 5730 5730
5778 5778 5779 5779 5779 5779 5779 5780 5780 5781 5781 5781 5782 5782 5782 5782 5783 5783 5783 5783 5783 5783 5782 5782 5782 5781 5781 5780 5779 5778 5778 5777 5776 5775 5775 5774 5773 5773 5772 5771 5770 5769 5768 5767 5765 5764 5763 5762 5762 5761 5759 5758 5757 5756 5755 5754 5754 5753 5752 5752 5751 5750 5748 5746 5745 5744 5743 5742 5741 5740 5738 5738 5737 5737 5738 5736 5734 5734 5734 5732 5731 5731 5730 5729 5728 5727 5726 5725
5779 5779 5779 5778 5778 5778 5778 5779 5779 5780 5780 5781 5781 5781 5781 5782 5782 5782 5782 5782 5782 5782 5781 5781 5781 5780 5779 5779 5778 5777 5776 5775 5775 5774 5773 5772 5772 5771 5770 5769 5768 5767 5766 5765 5764 5763 5762 5760 5759 5758 5757 5756 5755 5754 5753 5752 5751 5750 5749 5748 5747 5746 5745 5743 5742 5740 5739 5738 5737 5735 5734 5734 5733 5733 5732 5731 5730 5729 5729 5728 5727 5726 5725 5725 5724 5723 5722 5721
5779 5779 5779 5778 5777 5777 5778 5778 5778 5779 5779 5780 5780 5781 5781 5781 5781 5781 5782 5782 5781 5781 5780 5780 5779 5779 5778 5777 5777 5776 5775 5774 5773 5773 5772 5771 5771 5770 5769 5768 5767 5766 5765 5764 5762 5761 5760 5759 5757 5756 5755 5754 5753 5751 5750 5749 5747 5746 5745 5744 5743 5742 5741 5740 5738 5737 5735 5734 5733 5731 5730 5731 5729 5728 5727 5726 5725 5724 5724 5724 5722 5721 5720 5720 5719 5719 5718 5717
5779 5779 5778 5777 5777 5777 5777 5778 5778 5778 5779 5779 5780 5780 5780 5780 5781 5781 5781 5781 5780 5779 5779 5779 5778 5777 5777 5776 5775 5775 5774 5773 5773 5772 5771 5771 5770 5769 5768 5767 5766 5765 5763 5762 5761 5760 5758 5757 5756 5754 5753 5752 5750 5749 5748 5746 5745 5743 5742 5741 5740 5739 5738 5736 5735 5733 5732 5730 5729 5727 5727 5728 5725 5723 5722 5721 5720 5719 5719 5718 5718 5717 5716 5715 5714 5713 5713 5712
5778 5778 5777 5777 5777 5777 5777 5777 5778 5778 5779 5779 5779 5780 5780 5780 5780 5780 5780 5779 5779 5778 5778 5777 5777 5776 5776 5775 5775 5774 5773 5773 5772 5771 5771 5770 5769 5768 5767 5766 5764 5763 5762 5760 5759 5757 5756 5754 5753 5752 5750 5749 5747 5746 5745 5743 5742 5740 5739 5737 5736 5735 5734 5733 5731 5730 5728 5726 5725 5723 5723 5724 5722 5719 5717 5716 5716 5715 5714 5714 5713 5713 5711 5710 5709 5709 5708 5708
5778 5777 5776 5776 5776 5777 5777 5777 5778 5778 5778 5779 5779 5779 5780 5780 5780 5780 5779 5778 5778 5777 5777 5777 5776 5776 5776 5775 5774 5773 5773 5772 5771 5770 5769 5768 5767 5766 5765 5764 5762 5761 5759 5758 5756 5755 5753 5751 5750 5749 5747 5746 5744 5743 5742 5740 5739 5737 5736 5734 5733 5732 5731 5730 5728 5726 5724 5723 5722 5719 5719 5721 5719 5715 5713 5712 5711 5711 5710 5709 5709 5708 5707 5706 5705 5704 5704 5703
5777 5776 5776 5776 5776 5777 5777 5777 5777 5778 5778 5778 5779 5779 5780 5780 5779 5779 5778 5777 5777 5777 5776 5776 5776 5776 5775 5774 5773 5772 5772 5771 5770 5769 5768 5767 5766 5764 5763 5762 5760 5759 5757 5755 5754 5752 5750 5749 5747 5746 5744 5743 5741 5740 5738 5737 5736 5734 5733 5731 5730 5728 5727 5726 5725 5723 5721 5719 5718 5716 5715 5716 5715 5711 5709 5708 5707 5706 5706 5705 5704 5703 5702 5701 5701 5700 5699 5698
5777 5776 5776 5776 5776 5777 5777 5777 5777 5777 5778 5778 5778 5779 5779 5779 5778 5777 5777 5777 5776 5776 5776 5776 5776 5775 5774 5773 5772 5771 5770 5770 5769 5768 5767 5765 5764 5762 5761 5759 5758 5756 5755 5753 5751 5749 5748 5746 5744 5743 5741 5740 5738 5737 5735 5734 5733 5731 5730 5728 5727 5725 5724 5722 5721 5719 5717 5715 5714 5712 5711 5712 5711 5708 5705 5703 5702 5701 5702 5701 5699 5698 5697 5697 5696 5695 5695 5694
5777 5776 5776 5776 5776 5776 5776 5776 5776 5777 5777 5778 5778 5778 5778 5778 5777 5777 5776 5776 5776 5776 5776 5775 5775 5774 5773 5772 5771 5770 5769 5768 5767 5766 5765 5763 5762 5760 5759 5757 5755 5754 5752 5750 5748 5747 5745 5743 5742 5740 5739 5737 5735 5734 5733 5731 5730 5728 5726 5725 5724 5722 5720 5718 5716 5715 5713 5712 5711 5708 5706 5707 5707 5704 5701 5698 5697 5697 5697 5696 5694 5693 5693 5693 5692 5692 5691 5690
5777 5776 5776 5776 5776 5776 5776 5776 5776 5776 5777 5777 5777 5777 5777 5776 5776 5776 5776 5776 5776 5775 5775 5775 5774 5773 5772 5771 5770 5769 5768 5767 5766 5764 5763 5762 5760 5759 5757 5755 5753 5751 5749 5748 5746 5744 5742 5740 5739 5737 5736 5734 5733 5731 5730 5728 5727 5725 5723 5722 5720 5719 5717 5715 5712 5711 5709 5708 5707 5704 5702 5702 5702 5700 5697 5694 5693 5693 5693 5692 5690 5690 5690 5689 5688 5688 5687 5686
5776 5776 5776 5775 5775 5775 5775 5775 5775 5776 5776 5776 5776 5776 5776 5776 5775 5775 5775 5775 5775 5775 5774 5774 5773 5772 5771 5770 5769 5768 5767 5766 5765 5763 5762 5760 5758 5757 5755 5753 5751 5749 5747 5745 5743 5742 5740 5738 5736 5735 5733 5732 5730 5729 5727 5726 5724 5723 5721 5719 5718 5716 5715 5712 5710 5708 5706 5705 5704 5701 5699 5699 5698 5695 5694 5691 5690 5690 5689 5688 5687 5687 5686 5686 5685 5684 5683 5682
5776 5776 5775 5775 5774 5774 5774 5775 5775 5775 5776 5776 5775 5775 5775 5775 5775 5775 5774 5774 5774 5774 5773 5773 5772 5771 5770 5769 5768 5767 5766 5765 5764 5762 5760 5759 5757 5755 5753 5751 5749 5747 5745 5743 5741 5739 5738 5736 5734 5733 5731 5730 5728 5727 5725 5724 5722 5721 5719 5717 5715 5714 5712 5710 5708 5706 5704 5702 5701 5698 5696 5697 5694 5692 5691 5689 5688 5688 5686 5685 5685 5684 5683 5682 5681 5681 5680 5678
5776 5775 5775 5774 5774 5774 5774 5774 5774 5775 5775 5775 5774 5774 5774 5774 5774 5774 5774 5774 5773 5773 5772 5772 5771 5770 5769 5768 5767 5766 5765 5764 5762 5761 5759 5757 5755 5753 5751 5749 5748 5745 5743 5741 5740 5738 5737 5735 5733 5732 5730 5728 5727 5725 5723 5722 5720 5718 5717 5715 5713 5711 5709 5708 5705 5703 5701 5699 5698 5696 5694 5694 5691 5689 5688 5687 5686 5684 5682 5682 5681 5680 5680 5679 5678 5677 5676 5675
5775 5775 5774 5774 5773 5773 5774 5774 5774 5774 5774 5774 5774 5773 5773 5774 5773 5773 5773 5773 5773 5772 5771 5771 5770 5769 5768 5767 5766 5765 5764 5762 5760 5759 5757 5755 5753 5751 5749 5748 5746 5744 5742 5740 5739 5737 5735 5734 5732 5730 5728 5727 5725 5723 5722 5720 5718 5716 5714 5712 5710 5708 5706 5705 5703 5700 5698 5695 5694 5692 5691 5691 5688 5686 5685 5684 5683 5681 5679 5678 5677 5676 5675 5674 5673 5672 5671 5670
5775 5774 5773 5773 5773 5773 5773 5773 5774 5774 5773 5773 5773 5773 5773 5773 5773 5773 5773 5773 5772 5771 5771 5770 5769 5768 5767 5766 5765 5764 5762 5760 5758 5757 5755 5753 5751 5749 5748 5746 5744 5743 5741 5739 5737 5736 5734 5732 5730 5729 5727 5725 5723 5722 5720 5718 5716 5714 5712 5710 5708 5705 5703 5702 5700 5698 5696 5693 5690 5688 5688 5689 5686 5682 5681 5680 5679 5678 5676 5674 5673 5672 5671 5670 5669 5667 5666 5665
5774 5773 5773 5772 5772 5773 5773 5773 5773 5773 5773 5773 5772 5773 5773 5773 5773 5773 5772 5772 5771 5770 5770 5769 5768 5767 5766 5765 5763 5762 5760 5759 5757 5755 5753 5752 5750 5748 5746 5745 5743 5741 5740 5738 5736 5734 5732 5731 5729 5727 5725 5724 5722 5720 5718 5716 5714 5712 5710 5707 5705 5703 5701 5699 5697 5695 5694 5692 5689 5684 5684 5685 5684 5679 5677 5676 5675 5673 5672 5671 5670 5668 5667 5666 5664 5663 5661 5660
5773 5772 5772 5772 5772 5772 5772 5772 5772 5772 5772 5772 5772 5772 5772 5772 5772 5772 5771 5771 5770 5769 5769 5767 5766 5765 5764 5763 5762 5760 5759 5757 5755 5754 5752 5750 5748 5747 5745 5743 5742 5740 5738 5737 5735 5733 5731 5729 5727 5726 5724 5722 5720 5718 5716 5714 5712 5710 5708 5705 5703 5701 5699 5697 5695 5693 5691 5690 5687 5682 5679 5680 5681 5678 5673 5672 5670 5668 5666 5665 5665 5664 5663 5661 5659 5658 5657 5655
5772 5772 5771 5771 5771 5771 5772 5771 5771 5771 5771 5771 5771 5771 5771 5772 5771 5771 5771 5770 5769 5768 5767 5766 5765 5764 5763 5762 5761 5759 5757 5756 5754 5752 5750 5749 5747 5746 5744 5742 5741 5739 5737 5735 5734 5732 5730 5728 5726 5724 5722 5721 5719 5717 5715 5713 5710 5708 5706 5703 5701 5699 5697 5695 5693 5691 5688 5687 5685 5681 5678 5676 5676 5676 5672 5669 5667 5664 5662 5661 5661 5660 5658 5657 5655 5654 5652 5651
5772 5771 5771 5771 5771 5771 5771 5771 5770 5770 5770 5771 5771 5771 5771 5771 5771 5770 5770 5769 5768 5767 5766 5765 5764 5763 5762 5761 5759 5757 5756 5754 5752 5751 5749 5748 5746 5745 5743 5741 5740 5738 5736 5734 5733 5731 5729 5727 5725 5723 5721 5719 5717 5715 5713 5711 5709 5707 5704 5702 5699 5697 5695 5693 5691 5688 5686 5685 5683 5679 5676 5673 5673 5673 5670 5667 5665 5662 5660 5659 5657 5656 5655 5653 5651 5650 5649 5647
5771 5771 5771 5771 5771 5771 5770 5770 5770 5769 5770 5770 5770 5770 5770 5770 5770 5769 5769 5768 5767 5766 5765 5764 5763 5762 5761 5759 5758 5756 5754 5753 5751 5749 5748 5746 5745 5743 5742 5740 5738 5737 5735 5733 5732 5730 5728 5726 5724 5722 5720 5718 5716 5714 5711 5709 5707 5705 5702 5700 5697 5695 5693 5691 5688 5686 5683 5681 5680 5678 5674 5671 5670 5672 5669 5664 5662 5659 5656 5654 5653 5651 5650 5649 5647 5645 5645 5644
5771 5771 5771 5770 5770 5770 5769 5769 5769 5769 5769 5769 5769 5769 5769 5769 5769 5768 5768 5767 5766 5765 5764 5763 5762 5761 5759 5758 5756 5754 5753 5751 5750 5748 5747 5745 5744 5742 5741 5739 5737 5735 5734 5732 5730 5728 5727 5725 5723 5721 5718 5716 5714 5712 5710 5708 5705 5703 5700 5698 5695 5692 5690 5688 5686 5683 5679 5678 5677 5675 5672 5668 5667 5668 5667 5662 5659 5655 5652 5651 5648 5647 5645 5644 5643 5641 5640 5639
5770 5770 5770 5770 5769 5769 5768 5768 5768 5768 5768 5768 5768 5768 5768 5768 5768 5767 5766 5765 5764 5764 5762 5762 5760 5759 5758 5756 5755 5753 5751 5750 5748 5747 5745 5744 5742 5741 5739 5738 5736 5734 5732 5731 5729 5727 5725 5723 5721 5719 5717 5715 5712 5710 5708 5705 5703 5701 5698 5695 5692 5689 5686 5684 5682 5680 5676 5674 5673 5671 5669 5666 5664 5665 5664 5661 5656 5651 5648 5647 5645 5643 5641 5640 5639 5637 5636 5635
5769 5769 5769 5769 5768 5768 5768 5768 5768 5768 5768 5768 5768 5767 5767 5767 5766 5766 5765 5764 5763 5762 5761 5760 5759 5758 5756 5755 5753 5751 5750 5748 5747 5745 5744 5743 5741 5739 5738 5736 5734 5732 5731 5729 5727 5726 5723 5721 5719 5717 5715 5712 5710 5708 5705 5703 5701 5698 5695 5692 5689 5686 5682 5679 5678 5675 5672 5670 5669 5667 5664 5662 5662 5662 5661 5658 5654 5649 5645 5642 5641 5639 5638 5636 5634 5633 5632 5630
5768 5768 5768 5768 5767 5767 5767 5767 5767 5767 5767 5767 5767 5766 5766 5766 5765 5764 5764 5763 5762 5761 5760 5759 5757 5756 5755 5753 5752 5750 5748 5747 5745 5744 5743 5741 5739 5737 5735 5734 5732 5730 5728 5726 5725 5723 5722 5720 5717 5714 5713 5710 5707 5705 5702 5700 5697 5694 5692 5689 5686 5683 5677 5674 5673 5670 5667 5665 5663 5662 5658 5656 5658 5659 5658 5655 5651 5647 5643 5639 5636 5635 5633 5631 5629 5628 5626 5625
5768 5767 5767 5767 5766 5766 5766 5766 5766 5766 5766 5766 5765 5765 5765 5764 5764 5763 5762 5761 5760 5759 5758 5757 5756 5754 5753 5751 5750 5748 5747 5745 5744 5742 5741 5739 5738 5736 5733 5731 5730 5727 5725 5723 5721 5719 5718 5718 5715 5712 5710 5708 5705 5703 5700 5697 5694 5691 5689 5686 5683 5681 5675 5670 5668 5665 5662 5659 5656 5655 5653 5651 5652 5654 5655 5652 5648 5645 5641 5637 5634 5631 5630 5627 5625 5623 5621 5619
5766 5766 5766 5766 5766 5766 5766 5766 5766 5765 5765 5765 5764 5764 5764 5763 5762 5761 5761 5760 5759 5758 5756 5755 5754 5753 5751 5750 5748 5746 5745 5744 5742 5740 5739 5737 5736 5734 5732 5729 5727 5725 5722 5720 5717 5715 5713 5713 5712 5710 5708 5705 5702 5700 5697 5694 5691 5688 5686 5683 5679 5677 5673 5668 5663 5661 5658 5652 5649 5648 5646 5645 5647 5649 5651 5650 5646 5643 5639 5635 5632 5629 5626 5623 5619 5618 5616 5614
5765 5765 5765 5765 5765 5765 5765 5765 5765 5764 5764 5764 5763 5763 5762 5762 5761 5760 5759 5758 5757 5756 5755 5754 5752 5751 5750 5748 5746 5744 5743 5741 5740 5738 5737 5735 5733 5732 5730 5727 5725 5723 5720 5717 5715 5712 5708 5707 5708 5706 5704 5702 5699 5697 5694 5691 5688 5684 5682 5679 5675 5672 5669 5664 5659 5656 5654 5646 5642 5641 5637 5637 5639 5642 5647 5647 5642 5641 5637 5631 5628 5625 5622 5619 5615 5611 5610 5608
5764 5764 5764 5764 5764 5764 5764 5764 5764 5763 5763 5763 5762 5762 5761 5760 5759 5759 5757 5756 5755 5754 5753 5752 5750 5749 5748 5746 5744 5742 5740 5739 5737 5735 5734 5732 5731 5730 5727 5724 5722 5720 5717 5714 5712 5709 5704 5701 5702 5702 5700 5698 5696 5693 5691 5688 5684 5681 5678 5675 5671 5668 5665 5661 5654 5651 5648 5641 5635 5633 5630 5629 5630 5633 5638 5639 5637 5636 5633 5627 5623 5620 5616 5613 5610 5606 5603 5601
5763 5763 5763 5763 5763 5763 5763 5763 5763 5762 5762 5761 5761 5760 5759 5759 5758 5757 5756 5755 5753 5752 5751 5750 5748 5747 5745 5744 5742 5740 5738 5736 5735 5732 5731 5729 5728 5727 5724 5722 5719 5717 5714 5711 5708 5706 5701 5696 5695 5697 5696 5693 5691 5690 5687 5684 5680 5677 5674 5670 5667 5663 5660 5656 5650 5645 5643 5637 5629 5626 5623 5621 5623 5626 5628 5629 5631 5630 5627 5622 5618 5614 5610 5606 5603 5600 5596 5594
5762 5762 5762 5762 5762 5762 5762 5762 5762 5761 5761 5760 5760 5759 5758 5757 5756 5755 5754 5753 5751 5750 5749 5748 5746 5745 5743 5741 5739 5737 5735 5734 5732 5730 5727 5726 5725 5724 5721 5718 5716 5713 5710 5707 5704 5702 5699 5692 5688 5690 5690 5687 5686 5686 5682 5679 5676 5672 5669 5666 5662 5659 5655 5651 5646 5640 5638 5633 5625 5620 5615 5612 5617 5622 5620 5618 5622 5623 5619 5616 5613 5608 5604 5600 5596 5593 5589 5587
5762 5762 5762 5762 5761 5761 5761 5761 5760 5760 5759 5759 5758 5757 5757 5756 5754 5753 5752 5751 5749 5748 5747 5746 5744 5742 5741 5739 5736 5734 5732 5731 5730 5727 5725 5723 5721 5720 5718 5715 5712 5709 5706 5703 5701 5697 5694 5689 5683 5683 5683 5681 5681 5680 5676 5674 5671 5667 5664 5660 5657 5654 5649 5645 5640 5636 5632 5627 5621 5614 5606 5604 5611 5617 5614 5610 5610 5612 5611 5608 5605 5601 5596 5592 5589 5586 5583 5580
5761 5761 5761 5761 5760 5760 5760 5760 5759 5759 5758 5757 5757 5756 5755 5754 5752 5751 5750 5748 5747 5746 5745 5743 5742 5739 5738 5736 5734 5731 5729 5727 5726 5724 5722 5720 5718 5716 5714 5711 5707 5705 5701 5698 5696 5693 5689 5684 5678 5677 5676 5674 5674 5674 5670 5668 5665 5662 5658 5654 5652 5648 5642 5637 5632 5631 5628 5620 5615 5608 5598 5598 5606 5609 5608 5605 5600 5599 5599 5597 5595 5592 5587 5584 5582 5579 5576 5573
5760 5760 5760 5760 5759 5759 5759 5758 5758 5757 5756 5756 5755 5754 5753 5752 5750 5748 5747 5746 5745 5744 5742 5741 5739 5737 5735 5733 5730 5728 5725 5723 5722 5721 5718 5717 5715 5712 5709 5706 5703 5700 5697 5694 5691 5688 5684 5678 5674 5671 5670 5668 5667 5665 5663 5661 5659 5655 5651 5648 5645 5640 5636 5631 5624 5623 5621 5612 5607 5603 5592 5591 5601 5603 5600 5598 5594 5589 5586 5585 5583 5579 5576 5575 5573 5571 5568 5566
5759 5759 5759 5759 5758 5758 5758 5757 5756 5756 5755 5754 5753 5752 5751 5750 5747 5746 5745 5743 5742 5741 5740 5738 5736 5734 5732 5729 5726 5725 5722 5719 5718 5717 5715 5713 5711 5708 5704 5701 5698 5695 5692 5688 5686 5683 5678 5672 5667 5664 5663 5663 5661 5658 5656 5654 5651 5646 5643 5640 5636 5632 5629 5623 5616 5614 5611 5605 5603 5597 5587 5586 5596 5597 5591 5587 5586 5582 5575 5571 5569 5567 5566 5565 5563 5562 5560 5558
5758 5758 5758 5758 5757 5757 5756 5756 5755 5754 5753 5752 5751 5750 5748 5747 5745 5743 5742 5741 5739 5738 5737 5736 5734 5731 5728 5725 5723 5721 5719 5716 5713 5712 5710 5708 5706 5704 5700 5696 5693 5690 5687 5683 5679 5676 5671 5667 5661 5656 5654 5653 5653 5651 5649 5647 5642 5636 5633 5631 5626 5623 5619 5613 5608 5603 5597 5597 5599 5590 5579 5583 5591 5589 5582 5577 5575 5572 5566 5560 5558 5556 5555 5554 5553 5552 5550 5548
5758 5757 5757 5756 5756 5755 5755 5754 5753 5752 5751 5751 5749 5747 5746 5744 5742 5741 5740 5738 5737 5735 5733 5732 5730 5728 5725 5722 5720 5718 5716 5713 5709 5707 5705 5703 5700 5698 5695 5691 5688 5685 5681 5676 5672 5668 5664 5661 5656 5651 5647 5643 5641 5642 5641 5638 5634 5629 5626 5622 5618 5615 5610 5603 5599 5592 5585 5588 5592 5581 5571 5578 5586 5580 5570 5565 5563 5561 5557 5552 5549 5547 5544 5543 5542 5541 5539 5537
5757 5756 5756 5755 5754 5754 5753 5752 5751 5750 5749 5749 5747 5745 5743 5741 5740 5738 5737 5736 5734 5732 5730 5729 5727 5724 5721 5719 5717 5715 5713 5710 5705 5702 5701 5698 5695 5692 5689 5686 5683 5679 5675 5670 5665 5660 5655 5653 5651 5646 5641 5637 5634 5633 5631 5627 5623 5621 5619 5615 5610 5606 5603 5596 5588 5583 5580 5577 5576 5574 5569 5569 5573 5568 5558 5553 5553 5550 5547 5545 5542 5538 5535 5533 5532 5530 5528 5526
5755 5755 5754 5753 5753 5752 5751 5751 5750 5748 5747 5746 5745 5743 5741 5739 5737 5736 5734 5733 5731 5730 5728 5726 5723 5720 5717 5716 5713 5711 5709 5706 5701 5698 5696 5694 5690 5687 5684 5681 5677 5673 5668 5663 5658 5651 5645 5644 5644 5638 5633 5631 5628 5625 5623 5616 5611 5610 5608 5604 5601 5596 5592 5586 5579 5577 5577 5565 5558 5566 5570 5561 5554 5552 5548 5545 5543 5539 5537 5536 5532 5529 5527 5525 5524 5521 5518 5515
5754 5753 5753 5752 5751 5750 5750 5749 5747 5746 5745 5744 5742 5741 5739 5736 5734 5733 5732 5730 5729 5727 5725 5723 5720 5717 5714 5712 5709 5706 5704 5701 5697 5693 5690 5687 5683 5680 5677 5674 5670 5665 5661 5654 5649 5643 5635 5632 5634 5629 5622 5622 5620 5616 5613 5607 5601 5599 5596 5593 5590 5584 5579 5574 5570 5570 5567 5554 5548 5555 5560 5553 5542 5538 5539 5537 5533 5531 5529 5525 5521 5519 5519 5517 5514 5511 5508 5505
5753 5752 5751 5750 5749 5748 5747 5746 5745 5744 5742 5741 5740 5738 5736 5734 5732 5731 5729 5728 5726 5724 5721 5719 5717 5713 5710 5708 5704 5701 5698 5693 5690 5688 5684 5679 5676 5672 5668 5666 5662 5657 5652 5646 5640 5635 5625 5621 5623 5618 5610 5611 5613 5607 5601 5596 5591 5589 5587 5582 5577 5573 5569 5564 5559 5559 5554 5546 5544 5544 5544 5542 5535 5528 5530 5529 5524 5522 5519 5513 5510 5510 5509 5507 5503 5500 5498 5496
5751 5751 5749 5748 5747 5746 5745 5744 5743 5741 5740 5738 5737 5735 5733 5731 5730 5728 5726 5724 5722 5720 5717 5715 5712 5709 5706 5703 5699 5696 5692 5687 5683 5681 5677 5672 5669 5665 5659 5656 5653 5647 5642 5637 5631 5625 5616 5611 5612 5606 5596 5598 5603 5597 5590 5585 5579 5576 5574 5570 5565 5562 5560 5554 5547 5545 5542 5538 5537 5533 5529 5529 5526 5520 5520 5519 5514 5512 5507 5501 5499 5500 5498 5495 5492 5490 5487 5485
5750 5749 5748 5746 5745 5744 5743 5742 5740 5739 5737 5735 5734 5732 5730 5728 5727 5725 5723 5720 5718 5715 5713 5710 5707 5704 5701 5698 5694 5690 5687 5682 5678 5674 5670 5664 5661 5657 5651 5646 5642 5636 5631 5627 5620 5615 5607 5600 5600 5595 5583 5585 5591 5586 5579 5574 5569 5565 5562 5557 5555 5553 5548 5542 5537 5534 5531 5527 5526 5522 5517 5515 5515 5512 5509 5507 5504 5501 5495 5489 5489 5488 5486 5483 5480 5478 5476 5474
5748 5747 5746 5745 5743 5742 5740 5739 5738 5736 5734 5733 5731 5729 5727 5725 5723 5721 5719 5717 5713 5710 5708 5705 5701 5699 5695 5691 5688 5684 5680 5676 5672 5668 5664 5658 5654 5650 5644 5638 5634 5626 5620 5616 5609 5605 5600 5591 5589 5584 5572 5572 5579 5573 5565 5562 5558 5556 5552 5546 5544 5542 5536 5531 5528 5523 5520 5517 5514 5511 5506 5503 5503 5501 5499 5497 5493 5490 5484 5479 5478 5478 5475 5471 5469 5466 5465 5463